KN6RO-14 Weather Reports


Display with metric or nautical units.
time (UTC)temp
F
wind
direction
speed
MPH
gust
MPH
rain 1hr
in
rain 24hr
in
rain mn
in
humidity
%
barometer
mb
20260504045412 53 41 0.0 3.0 0.00 0.00 0.00 57 1018.1
20260504042413 51 243 0.0 1.0 0.00 0.00 0.00 63 1018.1
20260504035413 52 242 0.0 2.0 0.00 0.00 0.00 61 1018.1
20260504032413 53 240 0.0 1.0 0.00 0.00 0.00 57 1018.1
20260504025413 54 242 1.0 2.0 0.00 0.00 0.00 57 1018.1
20260504022413 55 246 0.0 1.0 0.00 0.00 0.00 56 1018.1
20260504015413 55 249 1.0 2.0 0.00 0.00 0.00 53 1017.8
20260504012413 55 245 1.0 2.0 0.00 0.00 0.00 52 1017.6
20260504005413 56 245 0.0 1.0 0.00 0.00 0.00 50 1017.4
20260504002413 57 349 1.0 2.0 0.00 0.00 0.00 50 1017.3
20260503235413 57 76 1.0 3.0 0.00 0.00 0.00 52 1017.1
20260503232413 59 315 0.0 4.0 0.00 0.00 0.00 47 1016.9
20260503225413 59 354 2.0 4.0 0.00 0.00 0.00 44 1017.2
20260503222413 60 97 2.0 4.0 0.00 0.00 0.00 41 1017.3
20260503215413 61 244 1.0 2.0 0.00 0.00 0.00 41 1017.2
20260503212413 61 70 2.0 5.0 0.00 0.00 0.00 42 1017.4
20260503205413 61 48 2.0 3.0 0.00 0.00 0.00 41 1017.6
20260503202413 61 120 2.0 6.0 0.00 0.00 0.00 38 1018.0
20260503195413 61 37 2.0 8.0 0.00 0.00 0.00 39 1018.4
20260503192413 61 21 1.0 1.0 0.00 0.00 0.00 44 1018.7
20260503185413 62 37 2.0 4.0 0.00 0.00 0.00 44 1019.2
20260503182413 63 43 2.0 5.0 0.00 0.00 0.00 42 1019.1
20260503175414 62 262 2.0 5.0 0.00 0.00 0.00 45 1019.3
20260503172414 62 70 2.0 6.0 0.00 0.00 0.00 43 1019.5